DC4AT Weather Reports


Display with metric or nautical units.
time (UTC)temp
F
wind
direction
speed
MPH
gust
MPH
rain 1hr
in
rain 24hr
in
rain mn
in
humidity
%
barometer
mb
20260831213723 59 234 5.0 10.0 0.00 0.30 0.30 85 1015.4
20260831212723 59 235 5.0 9.0 0.00 0.30 0.30 85 1015.4
20260831211723 59 250 4.0 11.0 0.00 0.30 0.30 85 1015.3
20260831210723 59 275 5.0 10.0 0.00 0.30 0.30 85 1015.1
20260831205723 59 247 5.0 12.0 0.00 0.30 0.30 86 1015.1
20260831204724 59 242 5.0 9.0 0.00 0.30 0.30 86 1014.9
20260831203724 59 240 5.0 11.0 0.00 0.30 0.30 86 1014.8
20260831202724 59 231 6.0 9.0 0.00 0.30 0.30 86 1014.7
20260831201724 59 238 5.0 12.0 0.00 0.30 0.30 86 1014.5
20260831200724 59 260 4.0 8.0 0.00 0.30 0.30 86 1014.4
20260831195724 59 261 2.0 6.0 0.00 0.30 0.30 86 1014.5
20260831194724 60 274 5.0 10.0 0.00 0.30 0.30 86 1014.4
20260831193724 60 238 5.0 13.0 0.00 0.30 0.30 86 1014.3
20260831192724 60 240 7.0 10.0 0.00 0.30 0.30 85 1014.2
20260831191724 60 236 5.0 13.0 0.00 0.30 0.30 86 1014.2
20260831190724 59 231 3.0 9.0 0.00 0.30 0.30 85 1014.1
20260831185724 59 219 4.0 8.0 0.00 0.30 0.30 86 1014.0
20260831184724 59 225 2.0 9.0 0.00 0.30 0.30 86 1014.0
20260831183724 59 275 1.0 3.0 0.00 0.30 0.30 86 1013.7
20260831182724 60 247 3.0 6.0 0.00 0.30 0.30 85 1013.5
20260831181724 60 223 3.0 7.0 0.00 0.30 0.30 85 1013.5
20260831180724 60 225 2.0 6.0 0.00 0.30 0.30 86 1013.4
20260831175724 60 263 1.0 6.0 0.00 0.30 0.30 86 1013.4
20260831174724 60 266 0.0 0.0 0.00 0.30 0.30 86 1013.1
20260831173724 60 265 2.0 7.0 0.00 0.30 0.30 86 1012.9
20260831172724 61 263 2.0 7.0 0.00 0.30 0.30 86 1013.0
20260831171724 61 236 1.0 6.0 0.00 0.30 0.30 86 1012.8
20260831170724 61 263 0.0 3.0 0.00 0.30 0.30 86 1012.6
20260831165724 61 265 1.0 4.0 0.00 0.30 0.30 86 1012.8
20260831164724 61 171 1.0 7.0 0.03 0.30 0.30 86 1012.3
20260831163724 62 106 0.0 3.0 0.15 0.30 0.30 86 1012.3
20260831162724 61 241 3.0 5.0 0.15 0.30 0.30 86 1012.4
20260831161724 61 232 4.0 9.0 0.15 0.30 0.30 85 1012.7
20260831160724 61 229 3.0 9.0 0.15 0.30 0.30 85 1012.3
20260831155724 62 191 8.0 14.0 0.15 0.30 0.30 83 1012.7
20260831154724 65 230 3.0 9.0 0.12 0.27 0.27 82 1012.4
20260831153724 66 0 1.0 4.0 0.00 0.15 0.15 77 1011.5
20260831152724 67 279 2.0 3.0 0.00 0.15 0.15 75 1011.8
20260831151724 67 265 6.0 17.0 0.03 0.15 0.15 71 1011.6
20260831150724 67 244 8.0 12.0 0.03 0.15 0.15 73 1011.5
20260831145724 67 321 9.0 14.0 0.03 0.15 0.15 76 1011.4
20260831144724 65 273 4.0 11.0 0.03 0.15 0.15 82 1011.4
20260831143724 65 300 2.0 4.0 0.03 0.15 0.15 82 1011.2
20260831142724 67 245 8.0 18.0 0.03 0.15 0.15 76 1011.2
20260831141724 69 269 8.0 15.0 0.00 0.12 0.12 69 1011.0
20260831140724 68 252 4.0 15.0 0.07 0.12 0.12 73 1011.0
20260831135724 67 270 5.0 9.0 0.07 0.12 0.12 79 1011.0
20260831134724 67 292 4.0 9.0 0.07 0.12 0.12 82 1011.0
20260831133724 66 236 2.0 7.0 0.07 0.12 0.12 84 1011.0
20260831132724 65 261 3.0 8.0 0.07 0.12 0.12 85 1011.3
20260831131724 66 315 8.0 12.0 0.07 0.12 0.12 78 1011.5
20260831130725 69 236 9.0 14.0 0.00 0.05 0.05 65 1011.2
20260831125725 70 281 10.0 19.0 0.00 0.05 0.05 63 1011.1
20260831124725 70 291 10.0 15.0 0.00 0.05 0.05 64 1011.0
20260831123725 70 277 9.0 16.0 0.00 0.05 0.05 63 1010.9
20260831122725 69 240 8.0 18.0 0.00 0.05 0.05 66 1011.1
20260831121725 69 277 9.0 13.0 0.00 0.05 0.05 67 1011.2
20260831120725 70 273 9.0 14.0 0.00 0.05 0.05 66 1011.2
20260831115725 70 286 10.0 16.0 0.00 0.05 0.05 64 1011.2
20260831114725 70 265 8.0 17.0 0.00 0.05 0.05 66 1011.1
20260831113725 69 333 8.0 15.0 0.05 0.05 0.05 70 1011.1
20260831112725 68 261 7.0 14.0 0.05 0.05 0.05 70 1011.3
20260831111725 69 242 6.0 10.0 0.05 0.05 0.05 74 1011.3
20260831110725 68 229 9.0 16.0 0.05 0.05 0.05 75 1011.2
20260831105725 67 272 4.0 17.0 0.05 0.05 0.05 81 1011.3
20260831104725 67 228 6.0 11.0 0.05 0.05 0.05 78 1011.5
20260831103725 68 267 6.0 12.0 0.00 0.00 0.00 72 1011.5
20260831102725 69 289 7.0 9.0 0.00 0.00 0.00 71 1011.5
20260831101725 68 327 6.0 8.0 0.00 0.00 0.00 73 1011.5
20260831100725 68 271 9.0 13.0 0.00 0.00 0.00 72 1011.6
20260831095725 68 226 9.0 16.0 0.00 0.00 0.00 71 1011.8
20260831094725 68 258 8.0 14.0 0.00 0.00 0.00 72 1011.8
20260831093725 68 244 9.0 13.0 0.00 0.00 0.00 72 1011.8
20260831092725 67 301 9.0 19.0 0.00 0.00 0.00 74 1011.8
20260831091725 67 236 8.0 18.0 0.00 0.00 0.00 75 1011.9
20260831090725 66 273 7.0 13.0 0.00 0.00 0.00 78 1012.0
20260831085725 65 300 9.0 14.0 0.00 0.00 0.00 80 1012.1
20260831084725 65 286 8.0 14.0 0.00 0.00 0.00 81 1012.1
20260831083725 65 259 7.0 15.0 0.00 0.00 0.00 83 1012.1
20260831082725 64 262 7.0 14.0 0.00 0.00 0.00 84 1012.0
20260831081725 64 272 7.0 12.0 0.00 0.00 0.00 85 1012.0
20260831080725 63 298 4.0 8.0 0.00 0.00 0.00 86 1011.9
20260831075725 62 273 4.0 8.0 0.00 0.00 0.00 86 1011.9
20260831074725 62 250 3.0 6.0 0.00 0.00 0.00 86 1011.9
20260831073725 62 287 4.0 6.0 0.00 0.00 0.00 86 1011.9
20260831072725 62 279 2.0 6.0 0.00 0.00 0.00 86 1011.9
20260831071725 62 284 4.0 4.0 0.00 0.00 0.00 86 1011.9
20260831070725 62 282 6.0 8.0 0.00 0.00 0.00 86 1011.8
20260831065725 62 252 7.0 10.0 0.00 0.00 0.00 85 1011.9
20260831064725 63 239 8.0 11.0 0.00 0.00 0.00 85 1011.9
20260831063725 63 246 6.0 12.0 0.00 0.00 0.00 85 1011.7
20260831062725 63 304 5.0 8.0 0.00 0.00 0.00 85 1011.7
20260831061725 62 275 5.0 11.0 0.00 0.00 0.00 86 1011.8
20260831060725 62 355 3.0 7.0 0.00 0.00 0.00 86 1011.5
20260831055725 61 313 2.0 5.0 0.00 0.00 0.00 85 1011.5
20260831054725 60 291 1.0 5.0 0.00 0.00 0.00 85 1011.4
20260831053725 60 84 1.0 3.0 0.00 0.00 0.00 84 1011.3
20260831052725 60 74 1.0 4.0 0.00 0.00 0.00 84 1011.2
20260831051726 59 40 1.0 6.0 0.00 0.00 0.00 84 1011.2
20260831050726 59 94 0.0 3.0 0.00 0.00 0.00 85 1011.1
20260831045726 59 77 1.0 4.0 0.00 0.00 0.00 85 1011.3
20260831044726 59 66 0.0 0.0 0.00 0.00 0.00 86 1011.2
20260831043726 59 126 0.0 3.0 0.00 0.00 0.00 86 1011.2
20260831042726 59 67 0.0 2.0 0.00 0.00 0.00 86 1011.0
20260831041726 60 259 1.0 3.0 0.00 0.00 0.00 86 1010.8
20260831040726 60 34 1.0 3.0 0.00 0.00 0.00 86 1010.8
20260831035726 59 50 1.0 4.0 0.00 0.00 0.00 86 1010.7
20260831034726 59 52 0.0 3.0 0.00 0.00 0.00 86 1010.8
20260831033726 59 338 1.0 0.0 0.00 0.00 0.00 86 1010.8
20260831032726 59 59 1.0 3.0 0.00 0.00 0.00 86 1011.0
20260831031726 59 74 2.0 6.0 0.00 0.00 0.00 86 1011.0
20260831030726 59 100 1.0 7.0 0.00 0.00 0.00 86 1011.2
20260831025726 59 244 1.0 4.0 0.00 0.00 0.00 85 1011.0
20260831024726 59 46 1.0 3.0 0.00 0.00 0.00 85 1011.0
20260831023726 59 61 0.0 2.0 0.00 0.00 0.00 85 1011.0
20260831022726 59 119 2.0 6.0 0.00 0.00 0.00 85 1011.0
20260831021726 59 98 3.0 7.0 0.00 0.00 0.00 85 1011.2
20260831020726 59 36 4.0 7.0 0.00 0.00 0.00 85 1011.4
20260831015726 59 66 2.0 8.0 0.00 0.00 0.00 85 1011.6
20260831014726 59 86 0.0 4.0 0.00 0.00 0.00 86 1011.5
20260831013726 58 164 0.0 2.0 0.00 0.00 0.00 86 1011.5
20260831012726 58 115 0.0 4.0 0.00 0.00 0.00 86 1011.7
20260831011726 58 171 0.0 1.0 0.00 0.00 0.00 86 1011.9
20260831010726 58 171 0.0 1.0 0.00 0.00 0.00 86 1011.9
20260831005726 59 171 0.0 4.0 0.00 0.00 0.00 85 1011.9
20260831004726 59 171 0.0 4.0 0.00 0.00 0.00 85 1011.9
20260831003726 59 210 1.0 3.0 0.00 0.00 0.00 85 1012.0
20260831002726 59 112 0.0 0.0 0.00 0.00 0.00 85 1011.7
20260831001726 59 111 0.0 3.0 0.00 0.00 0.00 85 1011.9
20260831000726 60 82 0.0 0.0 0.00 0.00 0.00 84 1012.0
20260830235726 60 82 0.0 0.0 0.00 0.00 0.00 84 1011.9
20260830234726 60 82 0.0 4.0 0.00 0.00 0.00 84 1012.0
20260830233726 60 149 0.0 0.0 0.00 0.00 0.00 84 1012.1
20260830232726 60 173 0.0 0.0 0.00 0.00 0.00 84 1012.1
20260830231726 61 59 0.0 0.0 0.00 0.00 0.00 83 1012.2
20260830230726 61 42 0.0 0.0 0.00 0.00 0.00 83 1012.4
20260830225726 61 101 0.0 2.0 0.00 0.00 0.00 83 1012.5
20260830224726 61 92 1.0 0.0 0.00 0.00 0.00 82 1012.6
20260830223726 61 79 1.0 5.0 0.00 0.00 0.00 82 1012.7
20260830222726 61 82 1.0 3.0 0.00 0.00 0.00 81 1012.7
20260830221726 62 77 2.0 5.0 0.00 0.00 0.00 81 1012.8
20260830220726 62 88 0.0 4.0 0.00 0.00 0.00 81 1012.8
20260830215726 62 90 2.0 7.0 0.00 0.00 0.00 81 1012.8
20260830214727 62 88 0.0 4.0 0.00 0.00 0.00 81 1012.8